Time,TemperatureF,DewpointF,PressureIn,WindDirection,WindDirectionDegrees,WindSpeedMPH,WindSpeedGustMPH,Humidity,HourlyPrecipIn,Conditions,Clouds,dailyrainin,SolarRadiationWatts/m^2,SoftwareType,DateUTC
2013-01-18 00:00:00,26.0,12.0,-100.00,WNW,292,9.0,-999.0,55,-99.99,,,-99.99,0.000000,,2013-01-18 05:00:00,
2013-01-18 00:33:00,26.0,12.0,-100.00,WNW,292,9.0,-999.0,55,-99.99,,,-99.99,0.000000,,2013-01-18 05:33:00,
2013-01-18 00:43:00,26.0,12.0,-100.00,WNW,292,9.0,-999.0,55,-99.99,,,-99.99,0.000000,,2013-01-18 05:43:00,
2013-01-18 00:53:00,26.0,12.0,-100.00,WNW,292,9.0,-999.0,55,-99.99,,,-99.99,0.000000,,2013-01-18 05:53:00,
2013-01-18 01:00:00,26.0,13.0,-100.00,NW,315,9.0,-999.0,55,-99.99,,,-99.99,0.000000,,2013-01-18 06:00:00,
2013-01-18 01:43:00,26.0,13.0,-100.00,NW,315,9.0,-999.0,55,-99.99,,,-99.99,0.000000,,2013-01-18 06:43:00,
2013-01-18 01:53:00,26.0,13.0,-100.00,NW,315,9.0,-999.0,55,-99.99,,,-99.99,0.000000,,2013-01-18 06:53:00,
2013-01-18 02:00:00,26.0,13.0,-100.00,NW,315,7.0,-999.0,58,-99.99,,,-99.99,0.000000,,2013-01-18 07:00:00,
2013-01-18 02:33:00,26.0,13.0,-100.00,NW,315,7.0,-999.0,58,-99.99,,,-99.99,0.000000,,2013-01-18 07:33:00,
2013-01-18 02:42:00,26.0,13.0,-100.00,NW,315,7.0,-999.0,58,-99.99,,,-99.99,0.000000,,2013-01-18 07:42:00,
2013-01-18 02:52:00,26.0,13.0,-100.00,NW,315,7.0,-999.0,58,-99.99,,,-99.99,0.000000,,2013-01-18 07:52:00,
2013-01-18 03:00:00,25.0,12.0,-100.00,NW,315,7.0,-999.0,56,-99.99,,,-99.99,0.000000,,2013-01-18 08:00:00,
2013-01-18 03:43:00,25.0,12.0,-100.00,NW,315,7.0,-999.0,56,-99.99,,,-99.99,0.000000,,2013-01-18 08:43:00,
2013-01-18 03:53:00,25.0,12.0,-100.00,NW,315,7.0,-999.0,56,-99.99,,,-99.99,0.000000,,2013-01-18 08:53:00,
2013-01-18 04:00:00,25.0,13.0,-100.00,NW,315,4.0,-999.0,58,-99.99,,,-99.99,0.000000,,2013-01-18 09:00:00,
2013-01-18 04:43:00,25.0,13.0,-100.00,NW,315,4.0,-999.0,58,-99.99,,,-99.99,0.000000,,2013-01-18 09:43:00,
2013-01-18 04:53:00,25.0,13.0,-100.00,NW,315,4.0,-999.0,58,-99.99,,,-99.99,0.000000,,2013-01-18 09:53:00,
2013-01-18 05:00:00,24.0,13.0,-100.00,WNW,292,2.0,-999.0,62,-99.99,,,-99.99,0.000000,,2013-01-18 10:00:00,
2013-01-18 05:33:00,24.0,13.0,-100.00,WNW,292,2.0,-999.0,62,-99.99,,,-99.99,0.000000,,2013-01-18 10:33:00,
2013-01-18 05:43:00,24.0,13.0,-100.00,WNW,292,2.0,-999.0,62,-99.99,,,-99.99,0.000000,,2013-01-18 10:43:00,
2013-01-18 05:53:00,24.0,13.0,-100.00,WNW,292,2.0,-999.0,62,-99.99,,,-99.99,0.000000,,2013-01-18 10:53:00,
2013-01-18 06:00:00,24.0,14.0,-100.00,WSW,247,1.0,-999.0,66,-99.99,,,-99.99,0.000000,,2013-01-18 11:00:00,
2013-01-18 06:43:00,24.0,14.0,-100.00,WSW,247,1.0,-999.0,66,-99.99,,,-99.99,0.000000,,2013-01-18 11:43:00,
2013-01-18 06:53:00,24.0,14.0,-100.00,WSW,247,1.0,-999.0,66,-99.99,,,-99.99,0.000000,,2013-01-18 11:53:00,
2013-01-18 07:00:00,24.0,15.0,-100.00,South,180,1.0,-999.0,68,-99.99,,,-99.99,0.000000,,2013-01-18 12:00:00,
2013-01-18 07:43:00,24.0,15.0,-100.00,South,180,1.0,-999.0,68,-99.99,,,-99.99,0.000000,,2013-01-18 12:43:00,
2013-01-18 07:53:00,24.0,15.0,-100.00,South,180,1.0,-999.0,68,-99.99,,,-99.99,0.000000,,2013-01-18 12:53:00,
2013-01-18 08:00:00,24.0,16.0,-100.00,South,180,2.0,-999.0,71,-99.99,,,-99.99,0.000000,,2013-01-18 13:00:00,
2013-01-18 08:33:00,24.0,16.0,-100.00,South,180,2.0,-999.0,71,-99.99,,,-99.99,0.000000,,2013-01-18 13:33:00,
2013-01-18 08:43:00,24.0,16.0,-100.00,South,180,2.0,-999.0,71,-99.99,,,-99.99,0.000000,,2013-01-18 13:43:00,
2013-01-18 08:53:00,24.0,16.0,-100.00,South,180,2.0,-999.0,71,-99.99,,,-99.99,0.000000,,2013-01-18 13:53:00,
2013-01-18 09:00:00,24.0,17.0,-100.00,South,180,5.0,-999.0,72,-99.99,,,-99.99,25.520000,,2013-01-18 14:00:00,
2013-01-18 09:43:00,24.0,17.0,-100.00,South,180,5.0,-999.0,72,-99.99,,,-99.99,25.520000,,2013-01-18 14:43:00,
2013-01-18 09:53:00,24.0,17.0,-100.00,South,180,5.0,-999.0,72,-99.99,,,-99.99,25.520000,,2013-01-18 14:53:00,
2013-01-18 10:00:00,25.0,17.0,-100.00,South,180,7.0,-999.0,72,-99.99,,,-99.99,87.000000,,2013-01-18 15:00:00,
2013-01-18 10:34:00,25.0,17.0,-100.00,South,180,7.0,-999.0,72,-99.99,,,-99.99,87.000000,,2013-01-18 15:34:00,
2013-01-18 10:43:00,25.0,17.0,-100.00,South,180,7.0,-999.0,72,-99.99,,,-99.99,87.000000,,2013-01-18 15:43:00,
2013-01-18 10:54:00,25.0,17.0,-100.00,South,180,7.0,-999.0,72,-99.99,,,-99.99,87.000000,,2013-01-18 15:54:00,
2013-01-18 11:00:00,27.0,16.0,-100.00,SSW,202,8.0,-999.0,64,-99.99,,,-99.99,191.399994,,2013-01-18 16:00:00,
2013-01-18 11:33:00,27.0,16.0,-100.00,SSW,202,8.0,-999.0,64,-99.99,,,-99.99,191.399994,,2013-01-18 16:33:00,
2013-01-18 11:43:00,27.0,16.0,-100.00,SSW,202,8.0,-999.0,64,-99.99,,,-99.99,191.399994,,2013-01-18 16:43:00,
2013-01-18 11:53:00,27.0,16.0,-100.00,SSW,202,8.0,-999.0,64,-99.99,,,-99.99,191.399994,,2013-01-18 16:53:00,
2013-01-18 12:00:00,29.0,17.0,-100.00,SSW,202,10.0,-999.0,60,-99.99,,,-99.99,254.039993,,2013-01-18 17:00:00,
2013-01-18 12:43:00,29.0,17.0,-100.00,SSW,202,10.0,-999.0,60,-99.99,,,-99.99,254.039993,,2013-01-18 17:43:00,
2013-01-18 12:53:00,29.0,17.0,-100.00,SSW,202,10.0,-999.0,60,-99.99,,,-99.99,254.039993,,2013-01-18 17:53:00,
2013-01-18 13:00:00,30.0,18.0,-100.00,SSW,202,11.0,-999.0,60,-99.99,,,-99.99,170.520004,,2013-01-18 18:00:00,
2013-01-18 13:43:00,30.0,18.0,-100.00,SSW,202,11.0,-999.0,60,-99.99,,,-99.99,170.520004,,2013-01-18 18:43:00,
2013-01-18 13:53:00,30.0,18.0,-100.00,SSW,202,11.0,-999.0,60,-99.99,,,-99.99,170.520004,,2013-01-18 18:53:00,
2013-01-18 14:00:00,32.0,19.0,-100.00,SSW,202,12.0,-999.0,58,-99.99,,,-99.99,234.320007,,2013-01-18 19:00:00,
2013-01-18 14:43:00,32.0,19.0,-100.00,SSW,202,12.0,-999.0,58,-99.99,,,-99.99,234.320007,,2013-01-18 19:43:00,
2013-01-18 14:53:00,32.0,19.0,-100.00,SSW,202,12.0,-999.0,58,-99.99,,,-99.99,234.320007,,2013-01-18 19:53:00,
2013-01-18 15:00:00,34.0,21.0,-100.00,SSW,202,12.0,-999.0,58,-99.99,,,-99.99,254.039993,,2013-01-18 20:00:00,
2013-01-18 15:43:00,34.0,21.0,-100.00,SSW,202,12.0,-999.0,58,-99.99,,,-99.99,254.039993,,2013-01-18 20:43:00,
2013-01-18 15:53:00,34.0,21.0,-100.00,SSW,202,12.0,-999.0,58,-99.99,,,-99.99,254.039993,,2013-01-18 20:53:00,
2013-01-18 16:00:00,37.0,23.0,-100.00,SSW,202,13.0,-999.0,56,-99.99,,,-99.99,226.199997,,2013-01-18 21:00:00,
2013-01-18 16:43:00,37.0,23.0,-100.00,SSW,202,13.0,-999.0,56,-99.99,,,-99.99,226.199997,,2013-01-18 21:43:00,
2013-01-18 16:53:00,37.0,23.0,-100.00,SSW,202,13.0,-999.0,56,-99.99,,,-99.99,226.199997,,2013-01-18 21:53:00,
2013-01-18 17:00:00,37.0,24.0,-100.00,SSW,202,13.0,-999.0,58,-99.99,,,-99.99,74.239998,,2013-01-18 22:00:00,
2013-01-18 17:43:00,37.0,24.0,-100.00,SSW,202,13.0,-999.0,58,-99.99,,,-99.99,74.239998,,2013-01-18 22:43:00,
2013-01-18 17:53:00,37.0,24.0,-100.00,SSW,202,13.0,-999.0,58,-99.99,,,-99.99,74.239998,,2013-01-18 22:53:00,
2013-01-18 18:00:00,37.0,23.0,-100.00,SSW,202,13.0,-999.0,56,-99.99,,,-99.99,22.040001,,2013-01-18 23:00:00,
2013-01-18 18:33:00,37.0,23.0,-100.00,SSW,202,13.0,-999.0,56,-99.99,,,-99.99,22.040001,,2013-01-18 23:33:00,
2013-01-18 18:43:00,37.0,23.0,-100.00,SSW,202,13.0,-999.0,56,-99.99,,,-99.99,22.040001,,2013-01-18 23:43:00,
2013-01-18 18:53:00,37.0,23.0,-100.00,SSW,202,13.0,-999.0,56,-99.99,,,-99.99,22.040001,,2013-01-18 23:53:00,
2013-01-18 19:00:00,37.0,22.0,-100.00,SSW,202,12.0,-999.0,54,-99.99,,,-99.99,0.000000,,2013-01-19 00:00:00,
2013-01-18 19:43:00,37.0,22.0,-100.00,SSW,202,12.0,-999.0,54,-99.99,,,-99.99,0.000000,,2013-01-19 00:43:00,
2013-01-18 19:53:00,37.0,22.0,-100.00,SSW,202,12.0,-999.0,54,-99.99,,,-99.99,0.000000,,2013-01-19 00:53:00,
2013-01-18 20:00:00,37.0,22.0,-100.00,SSW,202,11.0,-999.0,53,-99.99,,,-99.99,0.000000,,2013-01-19 01:00:00,
2013-01-18 20:43:00,37.0,22.0,-100.00,SSW,202,11.0,-999.0,53,-99.99,,,-99.99,0.000000,,2013-01-19 01:43:00,
2013-01-18 20:53:00,37.0,22.0,-100.00,SSW,202,11.0,-999.0,53,-99.99,,,-99.99,0.000000,,2013-01-19 01:53:00,
2013-01-18 21:00:00,37.0,22.0,-100.00,SW,225,11.0,-999.0,53,-99.99,,,-99.99,0.000000,,2013-01-19 02:00:00,
2013-01-18 21:43:00,37.0,22.0,-100.00,SW,225,11.0,-999.0,53,-99.99,,,-99.99,0.000000,,2013-01-19 02:43:00,
2013-01-18 21:53:00,37.0,22.0,-100.00,SW,225,11.0,-999.0,53,-99.99,,,-99.99,0.000000,,2013-01-19 02:53:00,
2013-01-18 22:00:00,38.0,23.0,-100.00,SW,225,11.0,-999.0,54,-99.99,,,-99.99,0.000000,,2013-01-19 03:00:00,
2013-01-18 22:44:00,38.0,23.0,-100.00,SW,225,11.0,-999.0,54,-99.99,,,-99.99,0.000000,,2013-01-19 03:44:00,
2013-01-18 22:53:00,38.0,23.0,-100.00,SW,225,11.0,-999.0,54,-99.99,,,-99.99,0.000000,,2013-01-19 03:53:00,
2013-01-18 23:00:00,38.0,24.0,-100.00,SW,225,11.0,-999.0,56,-99.99,,,-99.99,0.000000,,2013-01-19 04:00:00,
2013-01-18 23:43:00,38.0,24.0,-100.00,SW,225,11.0,-999.0,56,-99.99,,,-99.99,0.000000,,2013-01-19 04:43:00,
2013-01-18 23:53:00,38.0,24.0,-100.00,SW,225,11.0,-999.0,56,-99.99,,,-99.99,0.000000,,2013-01-19 04:53:00,